Location: New Canada
(47.1017°N, 68.5042°W)
Time: 16:07:55
(UTC+00:00)

RS-44 - Pass Details

Date: 23 April 2024
Orbit: 1174 x 1511 km, 82.5° (Epoch: 20 May)

Event Time Altitude Azimuth Distance (km) Brightness Sun altitude
Rises 01:50:08 0° 227° (SW) 4,629 ? -20.1°
Reaches altitude 10° 01:53:35 10° 237° (WSW) 3,630 ? -20.5°
Maximum altitude 02:00:58 30° 295° (WNW) 2,373 ? -21.3°
Drops below altitude 10° 02:08:05 10° 354° (N) 3,470 ? -22.1°
Sets 02:11:21 0° 6° (N) 4,395 ? -22.4°
